GPS BIIF-10 (40730 NORAD) Tracking and Keplerian Element Data

This shows tracking and keplerian element data for the satellite.

Feedback or suggestion? Click here.




ElementValue
Catalog40730
NameGPS BIIF-10
Epoch Orbit2994
Epoch Day228.84260484
Epoch Year2019
RAAN8.1843
Inclination55.598
Eccentricity0.004465
Argument of Perigee345.4311
Mean Anonmoly14.4415
Mean Motion2.00551152
Decay Rate-9.1E-07
L11 40730U 15033A 19228.84260484 -.00000091 00000-0 00000-0 0 9995
L22 40730 55.5980 8.1843 0044650 345.4311 14.4415 2.00551152 29946

Live tracking and technical data element details for GPS BIIF-10 (NORAD 40730). GPS BIIF-10 can be tracked NOW for your location showing map with azimuth and elevation plus other details from your city location.

Track the satellite on the map from your city or location and see movement details for azimuth, elevation, latitude, longitude, range, height, and movement on the map or in text.







IsCatalogInMostPopularTable: catalog: 40730, numindb: 312
Update: records affected: 1



GetName: 40730 GPS BIIF-10

Hit Count: updated at: Wed, 21 Aug 2019 11:06:39 GMT